Epoch,demod_status_bits,ebno,lock_status,signal_level,viterbi_ber
1665083898,,12.7,0xc0504d,-38.6,
1665083899,C;S;V;F,,0x00c000,-38.3,4.54e-7
1665083900,C;S;V;F,13.2,0x00c000,,4.54e-7
1665083901,C;S;V;F,11.7,0x00c000,-39.0,7.56e-6
1665083902,C;S;V;F,13.1,0x00c000,-38.0,7.57e-7
1665083903,C;S;V;F,13.0,0x00c000,-38.8,4.54e-7
1665083904,C;S;V;F,13.2,0x00c000,-38.1,6.06e-7
1665083906,C;S;V;F,13.2,0x00c000,-38.5,
1665083907,,14.6,0x00c000,-37.2,0.00e-0
1665083908,C;S;V;F,13.6,0x00c000,-38.7,0.00e-0
1665083909,C;S;V;F,12.9,0x00c000,-39.0,1.51e-7
1665083910,C;S;V;F,,0x00c000,-38.2,6.06e-7
1665083911,C;S;V;F,12.7,0x00c000,-38.0,6.06e-7
1665083912,C;S;V;F,13.4,0x00c000,,1.51e-7
1665083913,C;S;V;F,13.4,0x00c000,-38.0,0.00e-0
1665083914,C;S;V;F,14.0,0x00c000,-38.0,0.00e-0
1665083915,C;S;V;F,14.4,0x00c000,-37.2,0.00e-0
1665083916,C;S;V;F,13.5,0x00c000,-37.8,0.00e-0
1665083917,C;S;V;F,13.9,0x00c000,-37.9,0.00e-0
1665083918,C;S;V;F,13.8,0x00c000,-37.9,0.00e-0
1665083919,C;S;V;F,13.5,0x00c000,-38.4,0.00e-0
1665083920,C;S;V;F,14.2,0x00c000,-37.5,0.00e-0
1665083921,,14.6,0x00c000,-37.0,
1665083922,C;S;V;F,13.9,0x00c000,-37.9,0.00e-0
1665083923,C;S;V;F,13.9,0x00c000,-38.0,0.00e-0
1665083924,C;S;V;F,,0x00c000,-38.6,0.00e-0
1665083925,C;S;V;F,13.2,0x00c000,,0.00e-0
1665083926,C;S;V;F,14.1,0x00c000,-37.2,0.00e-0
1665083927,C;S;V;F,14.6,0x00c000,-37.8,0.00e-0
1665083928,C;S;V;F,14.0,0x00c000,-38.0,0.00e-0
1665083929,C;S;V;F,13.8,0x00c000,-37.9,0.00e-0
1665083930,C;S;V;F,13.8,0x00c000,-37.0,0.00e-0
1665083931,C;S;V;F,14.3,0x00c000,-38.2,0.00e-0
1665083932,C;S;V;F,14.5,0x00c000,-37.8,0.00e-0
1665083933,C;S;V;F,14.6,0x00c000,-37.2,
1665083934,,14.6,0x00c000,-37.0,0.00e-0
1665083935,C;S;V;F,14.3,0x00c000,-37.5,0.00e-0
1665083936,C;S;V;F,,0x00c000,-37.4,0.00e-0
1665083937,C;S;V;F,14.3,0x00c000,-37.1,0.00e-0
1665083938,C;S;V;F,14.6,0x00c000,,0.00e-0
1665083939,C;S;V;F,14.9,0x00c000,-36.9,0.00e-0
1665083940,C;S;V;F,14.3,0x00c000,-37.3,0.00e-0
1665083941,C;S;V;F,14.8,0x00c000,-37.2,0.00e-0
1665083942,C;S;V;F,14.8,0x00c000,-36.8,0.00e-0
1665083943,C;S;V;F,15.1,0x00c000,-36.7,0.00e-0
1665083944,C;S;V;F,14.9,0x00c000,-37.6,0.00e-0
1665083945,C;S;V;F,14.5,0x00c000,-37.0,0.00e-0
1665083946,C;S;V;F,14.9,0x00c000,-37.2,
1665083947,,14.7,0x00c000,-37.4,0.00e-0
1665083948,C;S;V;F,15.1,0x00c000,-36.5,0.00e-0
1665083949,C;S;V;F,15.1,0x00c000,-36.9,0.00e-0
1665083950,C;S;V;F,14.9,0x00c000,-37.1,0.00e-0
1665083951,C;S;V;F,,0x00c000,-37.0,0.00e-0
1665083952,C;S;V;F,14.9,0x00c000,,0.00e-0
1665083953,C;S;V;F,14.9,0x00c000,-36.9,0.00e-0
1665083954,C;S;V;F,15.1,0x00c000,-37.0,0.00e-0
1665083955,C;S;V;F,15.2,0x00c000,-36.8,0.00e-0
1665083956,C;S;V;F,14.9,0x00c000,-37.1,0.00e-0
1665083957,C;S;V;F,15.0,0x00c000,-36.8,0.00e-0
1665083958,C;S;V;F,15.0,0x00c000,-36.9,
1665083959,,15.0,0x00c000,-36.9,0.00e-0
1665083960,C;S;V;F,15.2,0x00c000,-36.7,0.00e-0
1665083961,C;S;V;F,15.5,0x00c000,-36.4,0.00e-0
1665083962,C;S;V;F,,0x00c000,-36.5,0.00e-0
1665083963,C;S;V;F,15.6,0x00c000,-36.4,0.00e-0
1665083964,C;S;V;F,15.5,0x00c000,,0.00e-0
1665083965,C;S;V;F,15.5,0x00c000,-36.4,0.00e-0
1665083966,C;S;V;F,15.8,0x00c000,-36.3,0.00e-0
1665083967,C;S;V;F,15.7,0x00c000,-36.4,0.00e-0
1665083969,C;S;V;F,15.5,0x00c000,-36.3,0.00e-0
1665083970,C;S;V;F,15.6,0x00c000,-36.3,0.00e-0
1665083971,C;S;V;F,15.7,0x00c000,-36.0,0.00e-0
1665083972,C;S;V;F,15.8,0x00c000,-36.0,
1665083973,,16.1,0x00c000,-36.2,0.00e-0
1665083974,C;S;V;F,16.1,0x00c000,-35.9,0.00e-0
1665083975,C;S;V;F,,0x00c000,-35.7,0.00e-0
1665083976,C;S;V;F,16.2,0x00c000,-36.0,0.00e-0
1665083977,C;S;V;F,15.9,0x00c000,,0.00e-0
1665083978,C;S;V;F,16.0,0x00c000,-35.8,0.00e-0
1665083979,C;S;V;F,16.3,0x00c000,-35.7,0.00e-0
1665083980,C;S;V;F,16.6,0x00c000,-35.5,0.00e-0
1665083981,C;S;V;F,16.1,0x00c000,-35.7,0.00e-0
1665083982,C;S;V;F,16.6,0x00c000,-35.3,0.00e-0
1665083983,C;S;V;F,16.3,0x00c000,-35.5,
1665083984,,16.2,0x00c000,-35.6,0.00e-0
1665083985,C;S;V;F,16.2,0x00c000,-35.6,0.00e-0
1665083986,C;S;V;F,16.3,0x00c000,-35.2,0.00e-0
1665083987,C;S;V;F,,0x00c000,-35.3,0.00e-0
1665083988,C;S;V;F,16.9,0x00c000,,0.00e-0
1665083989,C;S;V;F,16.8,0x00c000,-35.0,0.00e-0
1665083990,C;S;V;F,16.8,0x00c000,-35.0,0.00e-0
1665083991,C;S;V;F,17.0,0x00c000,-34.9,0.00e-0
1665083992,C;S;V;F,16.9,0x00c000,-34.8,0.00e-0
1665083993,C;S;V;F,16.7,0x00c000,-35.3,0.00e-0
1665083994,C;S;V;F,16.8,0x00c000,-35.2,0.00e-0
1665083995,C;S;V;F,17.1,0x00c000,-34.8,0.00e-0
1665083996,C;S;V;F,16.9,0x00c000,-34.8,0.00e-0
1665083997,C;S;V;F,16.9,0x00c000,-34.9,
1665083998,,16.8,0x00c000,-34.8,0.00e-0
1665083999,C;S;V;F,16.9,0x00c000,-34.7,0.00e-0
1665084000,C;S;V;F,17.1,0x00c000,-34.8,0.00e-0
1665084001,C;S;V;F,,0x00c000,-34.8,0.00e-0
1665084002,C;S;V;F,16.8,0x00c000,-34.6,0.00e-0
1665084003,C;S;V;F,17.3,0x00c000,,0.00e-0
1665084004,C;S;V;F,17.1,0x00c000,-34.8,0.00e-0
1665084005,C;S;V;F,17.0,0x00c000,-34.8,0.00e-0
1665084006,C;S;V;F,16.9,0x00c000,-34.8,0.00e-0
1665084007,C;S;V;F,17.1,0x00c000,-34.8,0.00e-0
1665084008,C;S;V;F,16.9,0x00c000,-34.6,0.00e-0
1665084009,C;S;V;F,17.1,0x00c000,-34.8,
1665084010,,17.0,0x00c000,-34.6,0.00e-0
1665084011,C;S;V;F,17.0,0x00c000,-34.8,0.00e-0
1665084012,C;S;V;F,,0x00c000,-34.7,0.00e-0
1665084013,C;S;V;F,17.0,0x00c000,,0.00e-0
1665084014,C;S;V;F,17.3,0x00c000,-34.5,0.00e-0
1665084015,C;S;V;F,17.2,0x00c000,-34.7,0.00e-0
1665084016,C;S;V;F,17.2,0x00c000,-34.6,0.00e-0
1665084017,C;S;V;F,17.1,0x00c000,-34.7,0.00e-0
1665084018,C;S;V;F,17.2,0x00c000,-34.7,0.00e-0
1665084019,C;S;V;F,17.1,0x00c000,-34.7,0.00e-0
1665084020,C;S;V;F,17.3,0x00c000,-34.6,0.00e-0
1665084021,C;S;V;F,17.3,0x00c000,-34.6,0.00e-0
1665084022,,17.3,0x00c000,-34.3,
1665084023,C;S;V;F,17.5,0x00c000,-34.4,0.00e-0
1665084024,C;S;V;F,17.4,0x00c000,-34.5,0.00e-0
1665084025,C;S;V;F,,0x00c000,-34.2,0.00e-0
1665084026,C;S;V;F,17.5,0x00c000,,0.00e-0
1665084027,C;S;V;F,17.5,0x00c000,-34.4,0.00e-0
1665084028,C;S;V;F,17.3,0x00c000,-34.3,0.00e-0
1665084029,C;S;V;F,17.6,0x00c000,-33.9,0.00e-0
1665084030,C;S;V;F,17.8,0x00c000,-34.0,0.00e-0
1665084033,C;S;V;F,17.7,0x00c000,-33.9,0.00e-0
1665084034,C;S;V;F,17.6,0x00c000,-34.2,0.00e-0
1665084035,C;S;V;F,17.3,0x00c000,-34.3,0.00e-0
1665084036,C;S;V;F,17.5,0x00c000,-34.3,0.00e-0
1665084037,C;S;V;F,17.3,0x00c000,-34.7,0.00e-0
1665084038,C;S;V;F,17.5,0x00c000,-34.4,0.00e-0
1665084039,C;S;V;F,17.4,0x00c000,-34.5,
1665084040,,17.2,0x00c000,-34.3,0.00e-0
1665084041,C;S;V;F,17.6,0x00c000,-34.6,0.00e-0
1665084042,C;S;V;F,,0x00c000,-34.7,0.00e-0
1665084043,C;S;V;F,17.4,0x00c000,-34.7,0.00e-0
1665084044,C;S;V;F,17.4,0x00c000,,0.00e-0
1665084045,C;S;V;F,17.3,0x00c000,-34.7,0.00e-0
1665084046,C;S;V;F,17.4,0x00c000,-34.6,0.00e-0
1665084047,C;S;V;F,17.1,0x00c000,-34.7,0.00e-0
1665084048,C;S;V;F,17.2,0x00c000,-34.8,0.00e-0
1665084049,C;S;V;F,17.2,0x00c000,-35.1,0.00e-0
1665084050,C;S;V;F,17.2,0x00c000,-34.8,
1665084051,,17.4,0x00c000,-34.9,0.00e-0
1665084052,C;S;V;F,17.0,0x00c000,-35.0,0.00e-0
1665084053,C;S;V;F,,0x00c000,-35.1,0.00e-0
1665084054,C;S;V;F,17.1,0x00c000,-34.9,0.00e-0
1665084055,C;S;V;F,17.2,0x00c000,,0.00e-0
1665084056,C;S;V;F,16.9,0x00c000,-35.1,0.00e-0
1665084057,C;S;V;F,17.1,0x00c000,-35.1,0.00e-0
1665084058,C;S;V;F,17.0,0x00c000,-34.8,0.00e-0
1665084059,,17.2,0x00c000,-34.8,
1665084060,C;S;V;F,,0x00c000,-34.8,0.00e-0
1665084061,C;S;V;F,17.5,0x00c000,,0.00e-0
1665084062,C;S;V;F,17.4,0x00c000,-34.8,0.00e-0
1665084063,C;S;V;F,17.2,0x00c000,-34.8,0.00e-0
1665084064,C;S;V;F,17.0,0x00c000,-34.9,0.00e-0
1665084065,C;S;V;F,17.1,0x00c000,-35.0,0.00e-0
1665084066,C;S;V;F,17.1,0x00c000,-35.1,0.00e-0
1665084067,C;S;V;F,17.1,0x00c000,-35.1,0.00e-0
1665084068,C;S;V;F,16.9,0x00c000,-35.2,0.00e-0
1665084069,C;S;V;F,17.2,0x00c000,-35.0,0.00e-0
1665084070,,16.9,0x00c000,-35.1,
1665084071,C;S;V;F,17.1,0x00c000,-34.9,0.00e-0
1665084072,C;S;V;F,17.2,0x00c000,-35.0,0.00e-0
1665084073,C;S;V;F,,0x00c000,-34.8,0.00e-0
1665084074,C;S;V;F,17.2,0x00c000,-34.9,0.00e-0
1665084075,C;S;V;F,17.2,0x00c000,,0.00e-0
1665084076,C;S;V;F,17.3,0x00c000,-34.8,0.00e-0
1665084077,C;S;V;F,17.3,0x00c000,-34.8,0.00e-0
1665084078,C;S;V;F,17.4,0x00c000,-34.8,0.00e-0
1665084079,C;S;V;F,17.4,0x00c000,-35.1,0.00e-0
1665084080,C;S;V;F,17.3,0x00c000,-34.8,0.00e-0
1665084081,C;S;V;F,17.3,0x00c000,-34.9,0.00e-0
1665084082,C;S;V;F,17.1,0x00c000,-34.8,0.00e-0
1665084083,,17.3,0x00c000,-35.2,
1665084084,C;S;V;F,,0x00c000,-35.1,0.00e-0
1665084085,C;S;V;F,16.9,0x00c000,,0.00e-0
1665084086,C;S;V;F,17.1,0x00c000,-35.0,0.00e-0
1665084087,C;S;V;F,17.0,0x00c000,-35.3,0.00e-0
1665084088,C;S;V;F,17.1,0x00c000,-34.9,0.00e-0
1665084089,C;S;V;F,17.3,0x00c000,-35.0,0.00e-0
1665084090,C;S;V;F,17.2,0x00c000,-34.9,0.00e-0
1665084091,C;S;V;F,16.9,0x00c000,-35.2,0.00e-0
1665084092,,16.9,0x00c000,-35.2,
1665084093,C;S;V;F,,,,0.00e-0
1665084094,,16.9,0x00c000,-35.1,
1665084095,C;S;V;F,,0x00c000,-35.2,0.00e-0
1665084096,C;S;V;F,16.9,0x00c000,,0.00e-0
1665084097,C;S;V;F,17.0,0x00c000,-35.3,0.00e-0
1665084098,C;S;V;F,17.1,0x00c000,-35.2,0.00e-0
1665084099,C;S;V;F,16.9,0x00c000,-35.2,0.00e-0
1665084100,C;S;V;F,17.0,0x00c000,-35.1,0.00e-0
1665084101,C;S;V;F,16.9,0x00c000,-35.5,0.00e-0
1665084102,C;S;V;F,16.9,0x00c000,-35.6,0.00e-0
1665084103,C;S;V;F,16.5,0x00c000,-35.7,0.00e-0
1665084104,C;S;V;F,16.3,0x00c000,-36.0,
1665084105,C;S;V;F,16.4,0x00c000,-35.8,0.00e-0
1665084106,,16.8,0x00c000,-36.0,0.00e-0
1665084107,C;S;V;F,,0x00c000,-35.8,0.00e-0
1665084108,C;S;V;F,16.5,0x00c000,,0.00e-0
1665084109,C;S;V;F,16.6,0x00c000,-35.6,0.00e-0
1665084110,C;S;V;F,16.4,0x00c000,-36.0,0.00e-0
1665084111,C;S;V;F,16.6,0x00c000,-35.6,0.00e-0
1665084112,C;S;V;F,16.7,0x00c000,-35.7,0.00e-0
1665084113,C;S;V;F,16.4,0x00c000,-35.7,0.00e-0
1665084114,C;S;V;F,16.4,0x00c000,-35.8,0.00e-0
1665084115,,16.2,0x00c000,-36.2,
1665084116,C;S;V;F,16.1,0x00c000,-36.3,0.00e-0
1665084117,C;S;V;F,16.0,0x00c000,-36.4,0.00e-0
1665084118,C;S;V;F,,0x00c000,-36.5,0.00e-0
1665084119,C;S;V;F,15.7,0x00c000,-36.4,0.00e-0
1665084120,C;S;V;F,15.7,0x00c000,,0.00e-0
1665084121,C;S;V;F,15.9,0x00c000,-36.7,0.00e-0
1665084122,C;S;V;F,15.5,0x00c000,-36.6,0.00e-0
1665084123,C;S;V;F,15.9,0x00c000,-36.4,0.00e-0
1665084124,C;S;V;F,15.9,0x00c000,-36.5,0.00e-0
1665084125,C;S;V;F,15.7,0x00c000,-36.8,0.00e-0
1665084126,C;S;V;F,15.8,0x00c000,-36.7,
1665084127,C;S;V;F,15.6,0x00c000,-37.1,0.00e-0
1665084128,,15.3,0x00c000,-37.4,0.00e-0
1665084129,C;S;V;F,15.1,0x00c000,-37.5,0.00e-0
1665084130,C;S;V;F,,0x00c000,-37.5,0.00e-0
1665084131,C;S;V;F,15.3,0x00c000,-37.5,0.00e-0
1665084132,C;S;V;F,15.1,0x00c000,,0.00e-0
1665084133,C;S;V;F,14.9,0x00c000,-37.3,0.00e-0
1665084134,C;S;V;F,15.2,0x00c000,-37.3,0.00e-0
1665084135,C;S;V;F,15.1,0x00c000,-37.6,0.00e-0
1665084136,C;S;V;F,15.2,0x00c000,-37.3,0.00e-0
1665084137,C;S;V;F,15.5,0x00c000,-36.9,0.00e-0
1665084138,C;S;V;F,15.9,0x00c000,-36.4,0.00e-0
1665084139,C;S;V;F,16.0,0x00c000,-36.3,
1665084140,,16.2,0x00c000,-36.2,0.00e-0
1665084141,C;S;V;F,16.2,0x00c000,-36.4,0.00e-0
1665084142,C;S;V;F,15.7,0x00c000,-36.4,0.00e-0
1665084143,C;S;V;F,,0x00c000,-36.4,0.00e-0
1665084144,C;S;V;F,15.8,0x00c000,,0.00e-0
1665084145,C;S;V;F,16.3,0x00c000,-36.3,0.00e-0
1665084146,C;S;V;F,16.2,0x00c000,-36.0,0.00e-0
1665084147,C;S;V;F,16.5,0x00c000,-36.0,0.00e-0
1665084148,C;S;V;F,16.4,0x00c000,-35.7,0.00e-0
1665084149,C;S;V;F,16.6,0x00c000,-35.6,0.00e-0
1665084150,C;S;V;F,16.6,0x00c000,-35.5,0.00e-0
1665084154,C;S;V;F,16.1,0x00c000,-36.2,0.00e-0
1665084155,C;S;V;F,16.1,0x00c000,-36.3,0.00e-0
1665084158,,16.3,0x00c000,-36.3,
1665084159,C;S;V;F,16.4,0x00c000,-36.2,0.00e-0
1665084160,C;S;V;F,,0x00c000,-36.2,0.00e-0
1665084161,C;S;V;F,16.4,0x00c000,,0.00e-0
1665084162,C;S;V;F,16.4,0x00c000,-36.2,0.00e-0
1665084163,C;S;V;F,16.2,0x00c000,-36.3,0.00e-0
1665084164,C;S;V;F,16.3,0x00c000,-36.3,0.00e-0
1665084165,C;S;V;F,16.2,0x00c000,-36.4,0.00e-0
1665084166,C;S;V;F,16.2,0x00c000,-36.4,0.00e-0
1665084167,C;S;V;F,16.4,0x00c000,-36.3,
1665084168,,16.7,0x00c000,-35.9,0.00e-0
1665084169,C;S;V;F,17.0,0x00c000,-35.4,0.00e-0
1665084170,C;S;V;F,,0x00c000,-35.1,0.00e-0
1665084171,C;S;V;F,17.6,0x00c000,-34.8,0.00e-0
1665084172,C;S;V;F,17.6,0x00c000,,0.00e-0
1665084173,C;S;V;F,17.3,0x00c000,-34.9,0.00e-0
1665084174,C;S;V;F,17.4,0x00c000,-35.0,0.00e-0
1665084175,C;S;V;F,17.0,0x00c000,-35.5,0.00e-0
1665084176,C;S;V;F,16.9,0x00c000,-35.6,0.00e-0
1665084177,C;S;V;F,16.9,0x00c000,-35.6,0.00e-0
1665084178,,16.9,0x00c000,-35.5,
1665084179,C;S;V;F,16.8,0x00c000,-35.5,0.00e-0
1665084180,C;S;V;F,,0x00c000,-35.4,0.00e-0
1665084181,C;S;V;F,16.9,0x00c000,,0.00e-0
1665084182,C;S;V;F,17.1,0x00c000,-35.2,0.00e-0
1665084183,C;S;V;F,17.1,0x00c000,-35.3,0.00e-0
1665084184,C;S;V;F,17.0,0x00c000,-35.6,0.00e-0
1665084185,C;S;V;F,16.7,0x00c000,-35.8,0.00e-0
1665084186,C;S;V;F,16.6,0x00c000,-36.3,0.00e-0
1665084187,C;S;V;F,16.2,0x00c000,-36.4,0.00e-0
1665084188,C;S;V;F,15.7,0x00c000,-36.6,0.00e-0
1665084189,C;S;V;F,15.6,0x00c000,-36.7,
1665084190,,15.7,0x00c000,-36.8,0.00e-0
1665084191,C;S;V;F,15.5,0x00c000,-36.8,0.00e-0
1665084192,C;S;V;F,15.6,0x00c000,-36.8,0.00e-0
1665084193,C;S;V;F,,0x00c000,-37.0,0.00e-0
1665084194,C;S;V;F,15.7,0x00c000,-37.0,0.00e-0
1665084195,C;S;V;F,15.4,0x00c000,,0.00e-0
1665084196,C;S;V;F,15.4,0x00c000,-37.1,0.00e-0
1665084197,C;S;V;F,15.6,0x00c000,-36.9,0.00e-0
1665084198,C;S;V;F,15.8,0x00c000,-36.4,0.00e-0
1665084199,C;S;V;F,16.2,0x00c000,-36.3,0.00e-0
1665084200,C;S;V;F,16.5,0x00c000,-35.9,0.00e-0
1665084201,C;S;V;F,16.5,0x00c000,-36.1,
1665084202,,16.2,0x00c000,-36.2,0.00e-0
1665084203,C;S;V;F,15.9,0x00c000,-36.6,0.00e-0
1665084204,C;S;V;F,15.7,0x00c000,-36.9,0.00e-0
1665084205,C;S;V;F,15.6,0x00c000,-36.9,0.00e-0
1665084206,C;S;V;F,,0x00c000,-37.0,0.00e-0
1665084207,C;S;V;F,15.8,0x00c000,-36.5,0.00e-0
1665084208,C;S;V;F,16.0,0x00c000,,0.00e-0
1665084209,C;S;V;F,15.9,0x00c000,-36.5,0.00e-0
1665084210,C;S;V;F,15.6,0x00c000,-36.8,0.00e-0
1665084211,C;S;V;F,15.4,0x00c000,-37.8,0.00e-0
1665084212,C;S;V;F,14.7,0x00c000,-38.2,0.00e-0
1665084213,C;S;V;F,14.3,0x00c000,-38.4,0.00e-0
1665084214,C;S;V;F,14.4,0x00c000,-38.1,0.00e-0
1665084215,C;S;V;F,14.7,0x00c000,-37.9,0.00e-0
1665084216,C;S;V;F,15.2,0x00c000,-37.6,0.00e-0
1665084217,C;S;V;F,14.6,0x00c000,-38.0,
1665084218,,14.2,0x00c000,-38.6,0.00e-0
1665084219,C;S;V;F,,,,0.00e-0
1665084221,C;S;V;F,13.7,0x00c000,-38.9,0.00e-0
1665084222,C;S;V;F,14.5,0x00c000,-38.5,0.00e-0
1665084223,C;S;V;F,14.9,0x00c000,-38.0,
1665084224,,14.8,0x00c000,-37.9,0.00e-0
1665084225,C;S;V;F,14.7,0x00c000,-37.9,0.00e-0
1665084226,C;S;V;F,,0x00c000,-38.3,0.00e-0
1665084227,C;S;V;F,14.5,0x00c000,,0.00e-0
1665084228,C;S;V;F,14.6,0x00c000,-38.2,0.00e-0
1665084229,C;S;V;F,14.8,0x00c000,-38.1,0.00e-0
1665084230,C;S;V;F,15.0,0x00c000,-37.9,0.00e-0
1665084231,C;S;V;F,15.5,0x00c000,-37.5,0.00e-0
1665084232,C;S;V;F,15.4,0x00c000,-37.3,0.00e-0
1665084233,C;S;V;F,15.5,0x00c000,-37.5,0.00e-0
1665084234,C;S;V;F,15.1,0x00c000,-37.3,
1665084235,,15.5,0x00c000,-36.9,0.00e-0
1665084236,C;S;V;F,15.8,0x00c000,-36.8,0.00e-0
1665084237,C;S;V;F,15.9,0x00c000,-36.9,0.00e-0
1665084238,C;S;V;F,,0x00c000,-36.9,0.00e-0
1665084239,C;S;V;F,15.7,0x00c000,-37.1,0.00e-0
1665084240,C;S;V;F,15.6,0x00c000,,0.00e-0
1665084241,C;S;V;F,15.3,0x00c000,-37.2,0.00e-0
1665084242,C;S;V;F,14.9,0x00c000,-37.9,0.00e-0
1665084243,C;S;V;F,14.9,0x00c000,-37.8,0.00e-0
1665084244,C;S;V;F,14.9,0x00c000,-37.8,0.00e-0
1665084245,C;S;V;F,15.0,0x00c000,-37.8,0.00e-0
1665084246,C;S;V;F,14.7,0x00c000,-37.7,0.00e-0
1665084247,C;S;V;F,14.9,0x00c000,-37.5,0.00e-0
1665084248,C;S;V;F,14.9,0x00c000,-37.6,0.00e-0
1665084249,,14.7,0x00c000,-38.1,
1665084250,C;S;V;F,14.6,0x00c000,-38.0,0.00e-0
1665084251,C;S;V;F,15.2,0x00c000,-37.4,0.00e-0
1665084252,C;S;V;F,,0x00c000,-36.9,0.00e-0
1665084253,C;S;V;F,15.4,0x00c000,,0.00e-0
1665084254,C;S;V;F,16.0,0x00c000,-36.4,0.00e-0
1665084255,C;S;V;F,16.2,0x00c000,-36.4,0.00e-0
1665084256,C;S;V;F,16.2,0x00c000,-36.4,0.00e-0
1665084257,C;S;V;F,16.2,0x00c000,-36.5,0.00e-0
1665084258,C;S;V;F,15.9,0x00c000,-36.7,0.00e-0
1665084259,C;S;V;F,16.1,0x00c000,-36.4,0.00e-0
1665084260,,16.2,0x00c000,-36.4,
1665084261,C;S;V;F,16.3,0x00c000,-36.4,0.00e-0
1665084262,C;S;V;F,16.3,0x00c000,-36.3,0.00e-0
1665084263,C;S;V;F,,0x00c000,-36.0,0.00e-0
1665084264,C;S;V;F,16.5,0x00c000,,0.00e-0
1665084265,C;S;V;F,16.9,0x00c000,-35.6,0.00e-0
1665084266,C;S;V;F,17.0,0x00c000,-35.5,0.00e-0
1665084267,C;S;V;F,17.3,0x00c000,-35.4,0.00e-0
1665084268,C;S;V;F,16.7,0x00c000,-35.8,0.00e-0
1665084269,C;S;V;F,16.6,0x00c000,-36.3,0.00e-0
1665084270,C;S;V;F,16.2,0x00c000,-36.4,
1665084271,,16.2,0x00c000,-35.7,0.00e-0
1665084272,C;S;V;F,17.3,0x00c000,-34.8,0.00e-0
1665084273,C;S;V;F,17.1,0x00c000,-35.1,0.00e-0
1665084274,C;S;V;F,,0x00c000,-35.6,0.00e-0
1665084275,C;S;V;F,16.7,0x00c000,-36.1,0.00e-0
1665084276,C;S;V;F,16.2,0x00c000,,0.00e-0
1665084277,C;S;V;F,16.4,0x00c000,-36.1,0.00e-0
1665084278,C;S;V;F,16.7,0x00c000,-35.8,0.00e-0
1665084279,C;S;V;F,16.6,0x00c000,-36.1,0.00e-0
1665084280,C;S;V;F,16.5,0x00c000,-36.2,0.00e-0
1665084281,C;S;V;F,16.3,0x00c000,-36.2,0.00e-0
1665084284,C;S;V;F,16.2,0x00c000,-36.4,0.00e-0
1665084285,C;S;V;F,15.5,0x00c000,-37.2,0.00e-0
1665084286,C;S;V;F,15.0,0x00c000,-37.6,0.00e-0
1665084287,C;S;V;F,14.9,0x00c000,-37.6,0.00e-0
1665084288,C;S;V;F,15.2,0x00c000,-37.4,
1665084289,,15.4,0x00c000,-37.3,0.00e-0
1665084290,C;S;V;F,15.4,0x00c000,-37.6,0.00e-0
1665084291,C;S;V;F,,0x00c000,-37.7,0.00e-0
1665084292,C;S;V;F,15.1,0x00c000,,0.00e-0
1665084293,C;S;V;F,15.1,0x00c000,-37.2,0.00e-0
1665084294,C;S;V;F,15.7,0x00c000,-36.3,0.00e-0
1665084295,C;S;V;F,16.4,0x00c000,-36.0,0.00e-0
1665084296,C;S;V;F,16.0,0x00c000,-36.6,0.00e-0
1665084297,C;S;V;F,15.4,0x00c000,-37.0,0.00e-0
1665084298,C;S;V;F,15.3,0x00c000,-37.4,0.00e-0
1665084299,C;S;V;F,15.9,0x00c000,-37.1,0.00e-0
1665084300,C;S;V;F,16.2,0x00c000,-36.4,
1665084301,,16.1,0x00c000,-36.3,0.00e-0
1665084302,C;S;V;F,16.0,0x00c000,-36.6,0.00e-0
1665084303,C;S;V;F,15.8,0x00c000,-36.9,0.00e-0
1665084304,C;S;V;F,,0x00c000,-36.3,0.00e-0
1665084305,C;S;V;F,16.1,0x00c000,,0.00e-0
1665084306,C;S;V;F,16.6,0x00c000,-35.1,0.00e-0
1665084307,C;S;V;F,17.3,0x00c000,-34.8,0.00e-0
1665084308,C;S;V;F,17.2,0x00c000,-34.9,0.00e-0
1665084309,C;S;V;F,17.0,0x00c000,-35.5,0.00e-0
1665084310,C;S;V;F,17.6,0x00c000,-34.5,0.00e-0
1665084311,C;S;V;F,18.1,0x00c000,-33.2,0.00e-0
1665084312,C;S;V;F,18.2,0x00c000,-33.2,
1665084313,,17.9,0x00c000,-34.0,0.00e-0
1665084314,C;S;V;F,17.2,0x00c000,-35.4,0.00e-0
1665084315,C;S;V;F,17.0,0x00c000,-35.3,0.00e-0
1665084316,C;S;V;F,,0x00c000,-34.3,0.00e-0
1665084317,C;S;V;F,17.8,0x00c000,,0.00e-0
1665084318,C;S;V;F,18.3,0x00c000,-33.2,0.00e-0
1665084319,C;S;V;F,18.3,0x00c000,-33.5,0.00e-0
1665084320,C;S;V;F,18.1,0x00c000,-34.3,0.00e-0
1665084321,C;S;V;F,17.5,0x00c000,-34.4,0.00e-0
1665084322,C;S;V;F,17.9,0x00c000,-33.9,0.00e-0
1665084323,C;S;V;F,18.5,0x00c000,-33.2,0.00e-0
1665084324,C;S;V;F,18.4,0x00c000,-33.2,
1665084325,,18.0,0x00c000,-33.6,0.00e-0
1665084326,C;S;V;F,17.7,0x00c000,-34.2,0.00e-0
1665084327,C;S;V;F,,0x00c000,-34.6,0.00e-0
1665084328,C;S;V;F,17.5,0x00c000,,0.00e-0
1665084329,C;S;V;F,17.6,0x00c000,-34.6,0.00e-0
1665084330,C;S;V;F,17.8,0x00c000,-34.3,0.00e-0
1665084331,C;S;V;F,17.8,0x00c000,-34.4,0.00e-0
1665084332,C;S;V;F,17.6,0x00c000,-34.9,0.00e-0
1665084333,C;S;V;F,17.2,0x00c000,-35.0,0.00e-0
1665084334,C;S;V;F,17.6,0x00c000,-34.5,0.00e-0
1665084335,C;S;V;F,17.6,0x00c000,-34.2,
1665084336,,17.9,0x00c000,-34.4,0.00e-0
1665084337,C;S;V;F,17.4,0x00c000,-34.5,0.00e-0
1665084338,C;S;V;F,,0x00c000,-34.4,0.00e-0
1665084339,C;S;V;F,17.6,0x00c000,-34.0,0.00e-0
1665084340,C;S;V;F,17.7,0x00c000,,0.00e-0
1665084341,C;S;V;F,17.9,0x00c000,-34.2,0.00e-0
1665084342,C;S;V;F,17.5,0x00c000,-34.8,0.00e-0
1665084343,C;S;V;F,17.2,0x00c000,-34.9,0.00e-0
1665084344,C;S;V;F,17.4,0x00c000,-34.9,0.00e-0
1665084347,C;S;V;F,17.3,0x00c000,-34.7,0.00e-0
1665084348,C;S;V;F,17.6,0x00c000,-34.4,0.00e-0
1665084349,C;S;V;F,17.7,0x00c000,-34.2,0.00e-0
1665084350,,17.7,0x00c000,-34.0,
1665084351,C;S;V;F,18.0,0x00c000,-33.5,0.00e-0
1665084352,C;S;V;F,18.1,0x00c000,-33.1,0.00e-0
1665084353,C;S;V;F,18.1,0x00c000,-33.5,0.00e-0
1665084354,C;S;V;F,,0x00c000,-34.4,0.00e-0
1665084355,C;S;V;F,17.4,0x00c000,,0.00e-0
1665084356,C;S;V;F,16.8,0x00c000,-35.4,0.00e-0
1665084357,C;S;V;F,16.9,0x00c000,-35.5,0.00e-0
1665084358,C;S;V;F,17.4,0x00c000,-34.8,0.00e-0
1665084359,C;S;V;F,17.6,0x00c000,-34.0,0.00e-0
1665084360,C;S;V;F,17.7,0x00c000,-34.2,0.00e-0
1665084361,,17.0,0x00c000,-35.7,
1665084362,C;S;V;F,16.0,0x00c000,-37.0,0.00e-0
1665084363,C;S;V;F,,0x00c000,-37.0,0.00e-0
1665084364,C;S;V;F,15.5,0x00c000,,0.00e-0
1665084365,C;S;V;F,15.8,0x00c000,-36.4,0.00e-0
1665084366,C;S;V;F,16.4,0x00c000,-35.5,0.00e-0
1665084367,C;S;V;F,17.0,0x00c000,-35.0,0.00e-0
1665084368,C;S;V;F,17.1,0x00c000,-35.0,0.00e-0
1665084369,C;S;V;F,16.6,0x00c000,-35.9,0.00e-0
1665084370,C;S;V;F,16.2,0x00c000,-37.1,0.00e-0
1665084371,C;S;V;F,15.0,0x00c000,-37.4,
1665084372,,15.3,0x00c000,-36.6,0.00e-0
1665084373,C;S;V;F,17.2,0x00c000,-35.2,0.00e-0
1665084374,C;S;V;F,17.5,0x00c000,-34.4,0.00e-0
1665084375,C;S;V;F,,0x00c000,-34.7,0.00e-0
1665084376,C;S;V;F,17.0,0x00c000,-35.7,0.00e-0
1665084377,C;S;V;F,16.5,0x00c000,,0.00e-0
1665084378,C;S;V;F,14.9,0x00c000,-37.8,0.00e-0
1665084379,C;S;V;F,14.1,0x00c000,-38.7,0.00e-0
1665084380,C;S;V;F,14.3,0x00c000,-37.4,0.00e-0
1665084381,C;S;V;F,15.7,0x00c000,-36.2,0.00e-0
1665084382,C;S;V;F,16.9,0x00c000,-34.7,0.00e-0
1665084383,C;S;V;F,17.6,0x00c000,-34.3,
1665084384,,17.6,0x00c000,-34.3,0.00e-0
1665084385,C;S;V;F,17.1,0x00c000,-35.4,0.00e-0
1665084386,C;S;V;F,16.0,0x00c000,-36.7,0.00e-0
1665084387,C;S;V;F,,0x00c000,-37.7,0.00e-0
1665084388,C;S;V;F,15.0,0x00c000,,0.00e-0
1665084389,C;S;V;F,14.9,0x00c000,-37.3,0.00e-0
1665084390,C;S;V;F,15.6,0x00c000,-36.3,0.00e-0
1665084391,C;S;V;F,16.5,0x00c000,-34.8,0.00e-0
1665084392,C;S;V;F,17.5,0x00c000,-34.2,0.00e-0
1665084393,C;S;V;F,17.9,0x00c000,-33.9,0.00e-0
1665084394,C;S;V;F,17.9,0x00c000,-34.6,0.00e-0
1665084395,C;S;V;F,16.5,0x00c000,-35.3,0.00e-0
1665084396,C;S;V;F,15.9,0x00c000,-36.6,
1665084397,,15.9,0x00c000,-36.9,0.00e-0
1665084398,C;S;V;F,16.4,0x00c000,-35.7,0.00e-0
1665084399,C;S;V;F,,0x00c000,-34.1,0.00e-0
1665084400,C;S;V;F,17.2,0x00c000,-33.6,0.00e-0
1665084401,C;S;V;F,18.0,0x00c000,,0.00e-0
1665084402,C;S;V;F,18.4,0x00c000,-33.1,0.00e-0
1665084403,C;S;V;F,18.3,0x00c000,-33.2,0.00e-0
1665084404,C;S;V;F,18.2,0x00c000,-33.4,0.00e-0
1665084405,C;S;V;F,17.8,0x00c000,-34.3,0.00e-0
1665084406,C;S;V;F,17.1,0x00c000,-35.3,0.00e-0
1665084407,C;S;V;F,16.6,0x00c000,-35.9,
1665084408,,,,,0.00e-0
1665084409,,,0x00c000,-34.5,
1665084410,C;S;V;F,17.4,0x00c000,-34.1,0.00e-0
1665084411,C;S;V;F,17.7,0x00c000,,0.00e-0
1665084412,C;S;V;F,17.9,0x00c000,-33.7,0.00e-0
1665084413,C;S;V;F,18.2,0x00c000,-33.2,0.00e-0
1665084414,C;S;V;F,18.1,0x00c000,-33.6,0.00e-0
1665084415,C;S;V;F,17.6,0x00c000,-34.1,0.00e-0
1665084416,C;S;V;F,17.2,0x00c000,-34.5,0.00e-0
1665084417,C;S;V;F,17.1,0x00c000,-35.2,0.00e-0
1665084418,C;S;V;F,16.9,0x00c000,-35.3,0.00e-0
1665084419,,17.2,0x00c000,-34.8,
1665084420,C;S;V;F,17.6,0x00c000,-34.3,0.00e-0
1665084421,C;S;V;F,17.8,0x00c000,-34.0,0.00e-0
1665084422,C;S;V;F,,0x00c000,-34.0,0.00e-0
1665084423,C;S;V;F,17.8,0x00c000,,0.00e-0
1665084424,C;S;V;F,18.0,0x00c000,-33.3,0.00e-0
1665084425,C;S;V;F,18.2,0x00c000,-34.0,0.00e-0
1665084426,C;S;V;F,17.7,0x00c000,-34.2,0.00e-0
1665084427,C;S;V;F,17.6,0x00c000,-34.2,0.00e-0
1665084428,C;S;V;F,17.4,0x00c000,-34.7,0.00e-0
1665084429,C;S;V;F,17.3,0x00c000,-34.8,
1665084430,,17.3,0x00c000,-34.9,0.00e-0
1665084431,C;S;V;F,17.3,0x00c000,-34.7,0.00e-0
1665084432,C;S;V;F,17.3,0x00c000,-35.0,0.00e-0
1665084433,C;S;V;F,,0x00c000,-34.9,0.00e-0
1665084434,C;S;V;F,17.1,0x00c000,,0.00e-0
1665084435,C;S;V;F,17.3,0x00c000,-34.9,0.00e-0
1665084436,C;S;V;F,17.2,0x00c000,-34.8,0.00e-0
1665084437,C;S;V;F,17.5,0x00c000,-34.7,0.00e-0
1665084438,C;S;V;F,17.2,0x00c000,-34.7,0.00e-0
1665084439,C;S;V;F,17.5,0x00c000,-34.4,0.00e-0
1665084440,C;S;V;F,17.5,0x00c000,-34.4,
1665084441,,17.6,0x00c000,-34.3,0.00e-0
1665084442,C;S;V;F,17.6,0x00c000,-34.7,0.00e-0
1665084443,C;S;V;F,17.2,0x00c000,-34.7,0.00e-0
1665084444,C;S;V;F,,0x00c000,-34.7,0.00e-0